Résultats de la compétition "Championnat de France Longue distance 2009" du 22-08-2009 organisée par la ligue BO
     
  Télécharger le fichier CSV.  
     
     

 Circuit "G"

Licence Nom Prénom Temps CN
précédent
Score sur
la course
Différence
1448KENANEAbdelkader0:54:4040644637+573
2716HABERKORNDidier0:56:5941114449+338
14235ANFOSSIGiuseppe0:57:5121914382+2191
1276ANTOINERegis0:58:4437124316+604
1000LEFOUESTJoseph0:59:3838094251+442
5033THIEBAULTMonique1:00:4740264171+145
1438BOUSQUETMichel1:02:4333254042+717
7574OUDINM-Reine1:03:3430923988+896
1380DIEUDONNEMadeleine1:04:2240923939-153
2401DEVILLENelly1:08:2145613709-852
2557VOGTChristiane1:13:0036223473-149
4389THIEBAULDGeorges1:14:1335663416-150
2888MOULIEREM-Bernadett1:16:5928363293+457
701ABISSEGisele1:18:3333983227-171
1363FERRAGERene1:19:1132263202-24
1087ROBERTMartine1:21:1533493120-229
395BLASCONicole1:21:2937923111-681
6491ROBERTFrancoise1:24:1338303010-820
3302JEANPIERREM-Therese1:27:5533122884-428
3179RICHARDClaudette1:31:0926372781+144
5497COCAULTYvonne1:33:0631062723-383
15630DIRRINGERM-Claude1:37:2430042603-401
7910MOUGELDanielle1:41:2623442499+155
295PEETERSSimone1:43:3429602448-512
12059GROSJEANA-Marie1:45:1223092410+101
14245RICHARDNicole1:50:1931362298-838
8954BASTIEN-FATHNicole1:53:5726402225-415
15894LUDEWIG-JAMESCarol1:54:2523832216-167
11368LAUNEYNoella1:55:2919752195+220
725LAURENTTherese2:00:1924132107-306
6826DUVOUXFrance2:00:4926792098-581
4392DODINGenevieve2:04:5820892029-60
1001LEFOUESTM-Therese2:07:0217421996+254
934TESTOUDMadeleine2:20:4920441800-244
1437BOUSQUETHuguette2:26:2016171732+115
2446RIFFARDM-LucieN/A27350-2735
14632ALLANCONClaudineN/A15490-1549

  Indice de confiance du circuit (moyenne des différences entre CN et score sur la course des 3 à 10 premiers) : 288






 Retour